Middletown, PA

11:57 AM EDT on August 17, 2017 (GMT -0400)
Harrisburg International

Weather History for KMDT - April, 2014

Change the Weather History Date:

Monday, April 14, 2014

  Actual Average Record
Temperature  
Mean Temperature 69 °F 52 °F  
Max Temperature 77 °F 62 °F 89 °F (1941)
Min Temperature 60 °F 41 °F 21 °F (1950)
Degree Days  
Heating Degree Days 0 14  
Month to date heating degree days 180 222  
Since 1 July heating degree days 5398 4933  
Cooling Degree Days 4 0  
Month to date cooling degree days 6 0  
Year to date cooling degree days 6 1  
Growing Degree Days 18 (Base 50)    
Moisture  
Dew Point 52 °F    
Average Humidity 58    
Maximum Humidity 78    
Minimum Humidity 38    
Precipitation  
Precipitation 0.00 in 0.10 in 1.31 in (2002)
Month to date precipitation 1.05 1.47  
Year to date precipitation 11.64 10.11  
Snow  
Snow 0.00 in 0.00 in 2.00 in (1923)
Month to date snowfall 0.0 0.3  
Since 1 July snowfall 44.0 30.5  
Snow Depth 0.00 in    
Sea Level Pressure  
Sea Level Pressure 29.86 in    
Wind  
Wind Speed 12 mph (South)    
Max Wind Speed 28 mph    
Max Gust Speed 40 mph    
Visibility 10 miles    
Events      
T = Trace of Precipitation, MM = Missing Value Source: NWS Daily Summary

Daily Weather History Graph

Daily Weather History Graph

Search for Another Location

Airport or City:

Trip Planner

Search our weather history database for the weather conditions in past years. The results will help you decide how hot, cold, wet, or windy it might be!

Date:

Astronomy

Apr. 14, 2014 Rise Set
Actual Time 6:30 AM EDT 7:44 PM EDT
Civil Twilight 6:02 AM EDT 8:12 PM EDT
Nautical Twilight 5:28 AM EDT 8:46 PM EDT
Astronomical Twilight 4:53 AM EDT 9:21 PM EDT
Moon 7:21 PM EDT (4/14) 6:01 AM EDT (4/14)
Length of Visible Light 14h 10m
Length of Day
13h 14m
Full, 100% of the Moon is Illuminated
Apr 14
Full
Apr 15
Full
Apr 22
Last Quarter
Apr 29
New
May 6
First Quarter

Hourly Weather History & Observations

Time (EDT) Temp. Dew Point Humidity Pressure Visibility Wind Dir Wind Speed Gust Speed Precip Events Conditions
12:56 AM 64.9 °F 54.0 °F 68% 29.95 in 10.0 mi SSE 10.4 mph - N/A   Overcast
1:56 AM 64.0 °F 54.0 °F 70% 29.94 in 10.0 mi SE 9.2 mph - N/A   Overcast
2:56 AM 62.1 °F 53.1 °F 72% 29.93 in 10.0 mi SE 6.9 mph - N/A   Mostly Cloudy
3:56 AM 60.1 °F 53.1 °F 78% 29.92 in 10.0 mi SE 6.9 mph - N/A   Mostly Cloudy
4:56 AM 61.0 °F 53.1 °F 75% 29.91 in 10.0 mi SE 5.8 mph - N/A   Overcast
5:56 AM 62.1 °F 53.1 °F 72% 29.91 in 10.0 mi SE 5.8 mph - N/A   Mostly Cloudy
6:56 AM 61.0 °F 53.1 °F 75% 29.91 in 10.0 mi SE 6.9 mph - N/A   Mostly Cloudy
7:56 AM 64.0 °F 54.0 °F 70% 29.92 in 10.0 mi SE 6.9 mph - N/A   Scattered Clouds
8:56 AM 68.0 °F 53.1 °F 59% 29.91 in 10.0 mi South 11.5 mph 21.9 mph N/A   Clear
9:56 AM 70.0 °F 54.0 °F 57% 29.90 in 10.0 mi South 13.8 mph 21.9 mph N/A   Mostly Cloudy
10:56 AM 72.0 °F 53.1 °F 51% 29.91 in 10.0 mi SW 15.0 mph 34.5 mph N/A   Mostly Cloudy
11:56 AM 73.0 °F 54.0 °F 51% 29.90 in 10.0 mi South 21.9 mph 35.7 mph N/A   Mostly Cloudy
12:56 PM 72.0 °F 53.1 °F 51% 29.88 in 10.0 mi South 17.3 mph 23.0 mph N/A   Mostly Cloudy
1:56 PM 73.9 °F 53.1 °F 48% 29.86 in 10.0 mi South 12.7 mph 28.8 mph N/A   Mostly Cloudy
2:56 PM 75.9 °F 53.1 °F 45% 29.83 in 10.0 mi SSW 13.8 mph 26.5 mph N/A   Mostly Cloudy
3:56 PM 77.0 °F 51.1 °F 40% 29.81 in 10.0 mi SSW 11.5 mph 33.4 mph N/A   Mostly Cloudy
4:53 PM 75.2 °F 50.0 °F 41% 29.80 in 10.0 mi SSW 13.8 mph 33.4 mph N/A   Overcast
4:56 PM 75.9 °F 50.0 °F 40% 29.80 in 10.0 mi SW 17.3 mph 33.4 mph N/A   Overcast
5:56 PM 75.0 °F 48.9 °F 40% 29.78 in 10.0 mi South 12.7 mph 24.2 mph N/A   Overcast
6:56 PM 73.9 °F 50.0 °F 43% 29.77 in 10.0 mi SSW 16.1 mph 27.6 mph N/A   Overcast
7:56 PM 73.0 °F 50.0 °F 44% 29.78 in 10.0 mi South 16.1 mph 21.9 mph N/A   Overcast
8:56 PM 71.1 °F 51.1 °F 49% 29.78 in 10.0 mi South 8.1 mph 18.4 mph N/A   Overcast
9:56 PM 71.1 °F 50.0 °F 47% 29.79 in 10.0 mi South 10.4 mph - N/A   Overcast
10:56 PM 68.0 °F 52.0 °F 56% 29.77 in 10.0 mi SSE 12.7 mph - N/A   Overcast
11:56 PM 66.2 °F 53.6 °F 64% 29.77 in 10.0 mi SSE 8.1 mph - N/A   Overcast